Location: Unspecified
(0.0000°N, 0.0000°E)
Time: 04:41:46
(UTC+00:00)

QB50P2 - Pass Details

Date: 18 March 2026
Orbit: 517 x 528 km, 98.1° (Epoch: 20 April)

Event Time Altitude Azimuth Distance (km) Brightness Sun altitude
Rises 05:18:36 0° 351° (N) 2,621 ? -12.4°
Reaches altitude 10° 05:20:56 10° 338° (NNW) 1,738 ? -11.8°
Maximum altitude 05:24:02 25° 282° (WNW) 1,082 ? -11.0°
Drops below altitude 10° 05:27:09 10° 226° (SW) 1,750 ? -10.2°
Sets 05:29:31 0° 212° (SSW) 2,642 ? -9.7°
